GW1838 Weather Reports


time (UTC)temp
F
wind
direction
speed
knots
gust
knots
rain 1hr
in
rain 24hr
in
rain mn
in
humidity
%
barometer
mb
20260506050305 58 209 13.0 20.9 0.00 0.00 0.00 86 1011.8
20260506044305 58 215 12.2 18.2 0.00 0.00 0.00 87 1011.7
20260506042305 57 204 11.3 19.1 0.00 0.00 0.00 87 1011.8
20260506040839 57 212 12.2 22.6 0.00 0.00 0.00 87 1011.8
20260506035808 57 212 10.4 17.4 0.00 0.00 0.00 87 1011.8
20260506035306 57 202 10.4 20.0 0.00 0.00 0.00 87 1011.9
20260506034806 57 224 8.7 17.4 0.00 0.00 0.00 87 1011.9
20260506034305 57 206 10.4 17.4 0.00 0.00 0.00 87 1011.9
20260506033805 57 203 9.6 17.4 0.00 0.00 0.00 86 1011.9
20260506033306 57 209 8.7 15.6 0.00 0.00 0.00 86 1011.9
20260506032804 57 212 10.4 19.1 0.00 0.00 0.00 86 1011.9
20260506030805 57 215 12.2 18.2 0.00 0.00 0.00 85 1012.0
20260506030307 58 201 12.2 20.0 0.00 0.00 0.00 85 1012.0
20260506024305 59 211 14.8 22.6 0.00 0.00 0.00 84 1012.0
20260506023305 59 205 11.3 21.7 0.00 0.00 0.00 83 1012.1
20260506021805 59 214 13.9 22.6 0.00 0.00 0.00 82 1012.1
20260506021305 59 202 13.9 21.7 0.00 0.00 0.00 82 1012.1
20260506020805 59 199 14.8 21.7 0.00 0.00 0.00 83 1012.1
20260506020305 59 215 12.2 20.9 0.00 0.00 0.00 83 1012.0
20260506015306 59 205 13.0 22.6 0.00 0.00 0.00 82 1011.9
20260506014807 59 206 13.9 20.9 0.00 0.00 0.00 82 1012.0
20260506014305 59 230 11.3 18.2 0.00 0.00 0.00 83 1012.0
20260506013806 59 200 11.3 20.0 0.00 0.00 0.00 83 1011.9
20260506013305 59 221 10.4 17.4 0.00 0.00 0.00 83 1011.9
20260506012307 59 216 11.3 18.2 0.00 0.00 0.00 83 1011.9
20260506011305 59 206 14.8 21.7 0.00 0.00 0.00 84 1011.8
20260506010805 59 210 11.3 20.0 0.00 0.00 0.00 83 1011.7
20260506005805 59 217 10.4 18.2 0.00 0.00 0.00 83 1011.5
20260506004305 59 197 13.9 20.0 0.00 0.00 0.00 82 1011.4
20260506003804 60 204 12.2 25.2 0.00 0.00 0.00 82 1011.4
20260506003305 59 206 13.9 22.6 0.00 0.00 0.00 82 1011.5
20260506002805 59 200 13.9 20.9 0.00 0.00 0.00 82 1011.5
20260506001304 59 186 13.9 18.2 0.00 0.00 0.00 82 1011.2
20260506000804 59 211 11.3 21.7 0.00 0.00 0.00 81 1011.3
20260505235305 59 216 11.3 21.7 0.00 0.00 0.00 81 1011.1
20260505234305 60 228 11.3 20.0 0.00 0.00 0.00 79 1011.1
20260505233805 60 194 13.9 27.8 0.00 0.00 0.00 79 1011.1
20260505231804 61 208 11.3 19.1 0.00 0.00 0.00 76 1011.0
20260505230305 61 206 12.2 20.9 0.00 0.00 0.00 77 1010.9
20260505225306 61 210 13.0 20.0 0.00 0.00 0.00 77 1010.5
20260505224804 61 201 13.0 21.7 0.00 0.00 0.00 77 1010.6
20260505224305 61 203 13.0 25.2 0.00 0.00 0.00 76 1010.5
20260505222306 63 208 11.3 18.2 0.00 0.00 0.00 74 1010.5
20260505220805 63 205 7.0 17.4 0.00 0.00 0.00 74 1010.5
20260505214805 62 204 13.9 27.8 0.00 0.00 0.00 75 1010.3
20260505205804 62 219 14.8 21.7 0.00 0.00 0.00 75 1009.9
20260505205305 62 183 14.8 25.2 0.00 0.00 0.00 76 1009.9
20260505204804 62 195 13.9 20.0 0.00 0.00 0.00 76 1009.9
20260505204304 62 208 12.2 22.6 0.00 0.00 0.00 76 1009.9
20260505202804 61 203 10.4 20.0 0.00 0.00 0.00 78 1009.9
20260505202306 61 219 10.4 20.9 0.00 0.00 0.00 79 1009.9
20260505201804 60 192 12.2 20.9 0.00 0.00 0.00 78 1009.9
20260505200305 60 210 12.2 20.0 0.00 0.00 0.00 79 1009.9
20260505195305 60 197 13.9 18.2 0.00 0.00 0.00 79 1010.1
20260505194304 60 201 14.8 22.6 0.00 0.00 0.00 78 1010.2
20260505193804 61 215 13.0 20.0 0.00 0.00 0.00 78 1010.2
20260505193304 61 211 11.3 20.9 0.00 0.00 0.00 78 1010.3
20260505192805 61 210 13.9 21.7 0.00 0.00 0.00 78 1010.5
20260505192305 61 211 8.7 17.4 0.00 0.00 0.00 79 1010.6
20260505191805 60 193 11.3 22.6 0.00 0.00 0.00 80 1010.6
20260505190304 60 193 10.4 17.4 0.00 0.00 0.00 80 1010.6
20260505185804 60 195 12.2 19.1 0.00 0.00 0.00 80 1010.6
20260505184805 59 192 10.4 18.2 0.00 0.00 0.00 79 1010.7
20260505183805 60 202 11.3 17.4 0.00 0.00 0.00 79 1010.7
20260505182306 60 201 11.3 20.9 0.00 0.00 0.00 79 1010.8
20260505181305 60 192 10.4 17.4 0.00 0.00 0.00 79 1011.0
20260505180804 60 197 9.6 20.0 0.00 0.00 0.00 80 1011.0
20260505173805 60 201 9.6 17.4 0.00 0.00 0.00 80 1011.2
20260505172306 59 192 9.6 15.6 0.00 0.00 0.00 81 1011.1
20260505171304 59 195 12.2 20.0 0.00 0.00 0.00 81 1011.1
20260505170304 59 195 11.3 18.2 0.00 0.00 0.00 81 1010.9
20260505165804 59 198 10.4 17.4 0.00 0.00 0.00 81 1011.0
20260505164804 59 206 9.6 17.4 0.00 0.00 0.00 80 1011.1
20260505163304 59 209 10.4 18.2 0.00 0.00 0.00 81 1011.4
20260505162804 59 213 9.6 14.8 0.00 0.00 0.00 81 1011.5
20260505152804 58 202 10.4 15.6 0.00 0.00 0.00 83 1011.7
20260505150805 58 226 8.7 19.1 0.00 0.00 0.00 83 1011.8
20260505150304 58 203 11.3 20.9 0.00 0.00 0.00 83 1011.8
20260505123304 59 201 6.1 10.4 0.00 0.00 0.00 84 1011.5
20260505122805 59 222 5.2 8.7 0.00 0.00 0.00 85 1011.5
20260505122305 58 206 4.3 10.4 0.00 0.00 0.00 85 1011.4
20260505121304 58 197 4.3 10.4 0.00 0.00 0.00 88 1011.4
20260505120806 57 193 4.3 8.7 0.00 0.00 0.00 88 1011.4
20260505115804 56 201 7.0 11.3 0.00 0.00 0.00 87 1011.4
20260505114304 56 213 6.1 13.0 0.00 0.00 0.00 90 1011.3
20260505113304 55 200 6.1 11.3 0.00 0.00 0.00 90 1011.4
20260505111804 54 194 6.1 13.0 0.00 0.00 0.00 90 1011.3
20260505111304 54 203 7.8 13.9 0.00 0.00 0.00 90 1011.3
20260505110804 55 205 7.8 15.6 0.00 0.00 0.00 90 1011.4
20260505110304 55 198 6.1 11.3 0.00 0.00 0.00 89 1011.3
20260505101807 55 207 4.3 6.1 0.00 0.00 0.00 89 1011.0
20260505095807 57 219 4.3 6.1 0.00 0.00 0.00 90 1010.8
20260505095307 57 216 5.2 8.7 0.00 0.00 0.00 90 1010.8
20260505094807 57 208 4.3 8.7 0.00 0.00 0.00 90 1010.7
20260505092307 57 223 5.2 10.4 0.00 0.00 0.00 90 1010.6
20260505091807 57 226 5.2 10.4 0.00 0.00 0.00 90 1010.6
20260505085307 57 211 6.1 11.3 0.00 0.00 0.00 90 1010.5
20260505084807 57 203 5.2 12.2 0.00 0.00 0.00 90 1010.5
20260505084307 57 219 5.2 10.4 0.00 0.00 0.00 90 1010.5
20260505082807 57 217 6.1 13.0 0.00 0.00 0.00 89 1010.6
20260505081308 57 215 7.8 12.2 0.00 0.00 0.00 90 1010.4
20260505080807 57 217 7.8 12.2 0.00 0.00 0.00 90 1010.4
20260505074307 56 210 8.7 13.0 0.00 0.00 0.00 91 1010.4
20260505073807 55 206 6.1 8.7 0.00 0.00 0.00 91 1010.4
20260505073306 55 207 6.1 10.4 0.00 0.00 0.00 92 1010.4
20260505072308 54 190 7.8 11.3 0.00 0.00 0.00 91 1010.4
20260505070807 55 206 6.1 8.7 0.00 0.00 0.00 90 1010.3
20260505070307 55 203 5.2 11.3 0.00 0.00 0.00 90 1010.3
20260505064807 56 208 6.1 10.4 0.00 0.00 0.00 90 1010.3
20260505062807 56 213 7.0 13.0 0.00 0.00 0.00 90 1010.3
20260505062307 56 221 5.2 11.3 0.00 0.00 0.00 90 1010.4
20260505061307 56 223 5.2 10.4 0.00 0.00 0.00 90 1010.4
20260505055807 55 216 6.1 10.4 0.00 0.00 0.00 90 1010.5
20260505055308 55 201 7.8 13.0 0.00 0.00 0.00 90 1010.5
20260505054807 55 201 7.8 13.0 0.00 0.00 0.00 90 1010.5
20260505054307 54 192 10.4 13.9 0.00 0.00 0.00 90 1010.7
20260505052807 54 195 9.6 14.8 0.00 0.00 0.00 90 1010.7
20260505052308 54 200 8.7 15.6 0.00 0.00 0.00 90 1010.8